STARLINK-33882

Last updated on Mon Jun 02 2025 00:02:04 GMT+0000 (Coordinated Universal Time)

1 63788U 25091P 25152.20186239 .00000467 00000+0 13779-4 0 9992 2 63788 43.0014 202.9656 0001400 275.8283 84.2418 15.50574223 5833
UTC large
Height (km)
Speed (km/s)
/
Latitude / Longitude
Inclination (degrees)
Orbital Period (minutes)
Azimuth
Elevation
Range (km)
Doppler Factor

Next 0 passes for location: London (51.5072 / 0.1276)

Sorry there are no passes over London.